Location: Chandrammap?lem
(16.9200°N, 81.0051°E)
Time: 11:46:12
(UTC+00:00)

USA 238 DEB - Pass Details

Date: 29 May 2024
Orbit: 912 x 1299 km, 63.4° (Epoch: 29 April)

Event Time Altitude Azimuth Distance (km) Brightness Sun altitude
Rises 23:16:53 0° 194° (SSW) 3,538 6.0 -10.6°
Reaches altitude 10° 23:19:26 10° 190° (S) 2,590 5.4 -10.0°
Maximum altitude 23:25:15 56° 113° (ESE) 1,077 4.0 -8.8°
Drops below altitude 10° 23:31:16 10° 36° (NE) 2,673 6.9 -7.5°
Sets 23:33:56 0° 32° (NNE) 3,661 7.6 -6.9°
